Regional Weather Roundup
Issued by NWS

Home | Current Version | Previous Version | Text Only | Print | Product List | Glossary Off
Versions: 1 2 3 4 5 6 7 8 9 10 11 12 13 14 15 16 17 18 19 20 21 22 23 24 25 26 27 28 29 30 31 32 33 34 35 36 37 38 39 40 41 42 43 44 45 46 47 48 49 50

000
ASUS43 KBIS 160402
RWRND

NORTH DAKOTA REGIONAL WEATHER ROUNDUP
NATIONAL WEATHER SERVICE BISMARCK ND
1000 PM CST MON JAN 15 2018

NOTE: "FAIR" INDICATES FEW OR NO CLOUDS BELOW 12,000 FEET WITH NO
SIGNIFICANT WEATHER AND/OR OBSTRUCTIONS TO VISIBILITY.


NDZ001>003-009>011-017-160500-
NORTHWEST NORTH DAKOTA

CITY           SKY/WX    TMP DP  RH WIND       PRES   REMARKS
WILLISTON      CLEAR    -16 -21  78 SW5       30.78F WCI -29
MINOT          CLOUDY   -15 -20  78 SW9       30.78F WCI -34
MINOT AFB      CLOUDY   -17 -24  72 W9        30.78F WCI -36
$$

NDZ018>021-031>035-040>046-160500-
SOUTHWEST NORTH DAKOTA

CITY           SKY/WX    TMP DP  RH WIND       PRES   REMARKS
BISMARCK       CLEAR    -13 -19  75 SW3       30.85R
DICKINSON      CLEAR    -19 -24  77 W6        30.70F WCI -34
GARRISON         N/A    -15 -22  70 CALM      30.79R
HETTINGER ARPT CLEAR    -18 -24  74 W8        30.74R WCI -36
$$

NDZ004>008-012>016-024-026-027-054-160500-
NORTHEAST NORTH DAKOTA

CITY           SKY/WX    TMP DP  RH WIND       PRES   REMARKS
GRAND FORKS    FAIR     -11 -17  75 N10       30.84R WCI -30
GRND FRKS AFB  FAIR     -11 -19  66 N10       30.84R WCI -30
DEVILS LAKE    FAIR     -17 -22  78 W7        30.82R WCI -33
$$

NDZ022-023-025-028>030-036>039-047>053-160500-
SOUTHEAST NORTH DAKOTA

CITY           SKY/WX    TMP DP  RH WIND       PRES   REMARKS
FARGO          CLOUDY    -9 -15  75 N17       30.81S HAZE    WCI -32
JAMESTOWN      CLOUDY   -11 -17  75 N17       30.78S WCI -35
$$




USA.gov is the U.S. government's official web portal to all federal, state and local government web resources and services.